TimeCDT,TemperatureF,Dew PointF,Humidity,Sea Level PressureIn,VisibilityMPH,Wind Direction,Wind SpeedMPH,Gust SpeedMPH,PrecipitationIn,Events,Conditions,WindDirDegrees,DateUTC
12:15 AM,79.7,71.8,77,29.99,10.0,Calm,Calm,-,N/A,,Clear,0,2013-08-15 05:15:00
12:35 AM,79.7,72.3,78,30.00,10.0,NW,6.9,-,N/A,,Clear,320,2013-08-15 05:35:00
12:55 AM,79.7,72.9,80,29.99,10.0,WNW,3.5,-,N/A,,Clear,300,2013-08-15 05:55:00
1:15 AM,79.7,72.5,79,29.97,10.0,Calm,Calm,-,N/A,,Clear,0,2013-08-15 06:15:00
1:35 AM,79.2,72.9,81,29.97,10.0,Calm,Calm,-,N/A,Rain,Light Rain,0,2013-08-15 06:35:00
1:55 AM,78.8,73.0,82,29.97,5.0,Calm,Calm,-,0.02,Rain,Rain,0,2013-08-15 06:55:00
2:15 AM,78.8,73.9,85,29.96,10.0,Calm,Calm,-,0.01,Rain,Light Rain,0,2013-08-15 07:15:00
2:35 AM,78.3,74.1,87,29.96,10.0,Calm,Calm,-,0.01,Rain,Rain,0,2013-08-15 07:35:00
2:55 AM,78.6,74.3,87,29.96,10.0,Calm,Calm,-,0.02,,Clear,0,2013-08-15 07:55:00
3:15 AM,78.4,74.3,87,29.96,10.0,Calm,Calm,-,N/A,,Clear,0,2013-08-15 08:15:00
3:35 AM,78.1,74.5,89,29.97,10.0,Calm,Calm,-,N/A,,Clear,0,2013-08-15 08:35:00
3:55 AM,77.9,74.3,89,29.97,10.0,Calm,Calm,-,N/A,,Clear,0,2013-08-15 08:55:00
4:15 AM,78.1,74.5,89,29.97,10.0,Calm,Calm,-,N/A,,Clear,0,2013-08-15 09:15:00
4:35 AM,77.9,74.5,89,29.96,10.0,Calm,Calm,-,N/A,,Clear,0,2013-08-15 09:35:00
4:55 AM,77.9,74.5,89,29.97,10.0,Calm,Calm,-,N/A,,Clear,0,2013-08-15 09:55:00
5:15 AM,77.9,74.3,89,29.96,10.0,Calm,Calm,-,N/A,,Clear,0,2013-08-15 10:15:00
5:35 AM,77.9,74.5,89,29.97,10.0,Calm,Calm,-,N/A,,Clear,0,2013-08-15 10:35:00
5:55 AM,77.9,74.3,89,29.97,10.0,ENE,3.5,-,N/A,,Clear,60,2013-08-15 10:55:00
6:15 AM,77.5,74.3,90,29.98,10.0,NE,3.5,-,N/A,,Scattered Clouds,50,2013-08-15 11:15:00
6:35 AM,77.7,74.3,89,29.99,10.0,NNE,3.5,-,N/A,,Mostly Cloudy,30,2013-08-15 11:35:00
6:55 AM,77.9,74.3,89,30.00,10.0,Calm,Calm,-,N/A,,Mostly Cloudy,0,2013-08-15 11:55:00
7:15 AM,78.1,74.7,89,30.00,10.0,NE,3.5,-,N/A,,Light Drizzle,40,2013-08-15 12:15:00
7:35 AM,78.1,74.8,90,30.01,10.0,Calm,Calm,-,N/A,,Overcast,0,2013-08-15 12:35:00
7:55 AM,78.4,75.0,89,30.02,10.0,ENE,5.8,-,N/A,,Overcast,60,2013-08-15 12:55:00
8:15 AM,78.3,74.7,89,30.02,10.0,East,4.6,-,N/A,,Mostly Cloudy,100,2013-08-15 13:15:00
8:35 AM,78.4,74.5,88,30.03,10.0,Calm,Calm,-,N/A,,Scattered Clouds,0,2013-08-15 13:35:00
8:55 AM,78.4,74.5,88,30.03,10.0,Calm,Calm,-,N/A,,Scattered Clouds,0,2013-08-15 13:55:00
9:15 AM,78.8,74.5,87,30.04,10.0,Calm,Calm,-,N/A,,Scattered Clouds,0,2013-08-15 14:15:00
9:35 AM,79.7,74.5,84,30.03,10.0,East,5.8,-,N/A,,Clear,90,2013-08-15 14:35:00
9:55 AM,80.2,74.7,83,30.03,10.0,East,3.5,-,N/A,,Clear,90,2013-08-15 14:55:00
10:15 AM,81.5,74.8,80,30.03,10.0,East,3.5,-,N/A,,Clear,80,2013-08-15 15:15:00
10:35 AM,81.9,74.3,78,30.03,10.0,East,4.6,-,N/A,,Clear,80,2013-08-15 15:35:00
10:55 AM,82.4,74.1,76,30.03,10.0,ESE,4.6,-,N/A,,Clear,110,2013-08-15 15:55:00
11:15 AM,83.3,73.2,71,30.03,10.0,East,4.6,-,N/A,,Clear,100,2013-08-15 16:15:00
11:35 AM,84.4,72.9,68,30.03,10.0,ENE,3.5,-,N/A,,Clear,70,2013-08-15 16:35:00
11:55 AM,86.4,72.7,64,30.03,10.0,Calm,Calm,-,N/A,,Clear,0,2013-08-15 16:55:00
12:15 PM,86.9,72.5,62,30.03,10.0,Calm,Calm,-,N/A,,Scattered Clouds,0,2013-08-15 17:15:00
12:35 PM,86.7,72.5,62,30.02,10.0,ESE,4.6,-,N/A,,Mostly Cloudy,110,2013-08-15 17:35:00
12:55 PM,87.1,71.4,59,30.02,10.0,Calm,Calm,-,N/A,,Mostly Cloudy,0,2013-08-15 17:55:00
1:15 PM,88.9,72.3,58,30.02,10.0,East,4.6,-,N/A,,Mostly Cloudy,90,2013-08-15 18:15:00
1:35 PM,88.2,70.7,56,30.01,10.0,Calm,Calm,-,N/A,,Scattered Clouds,0,2013-08-15 18:35:00
1:55 PM,89.8,70.9,54,30.00,10.0,Calm,Calm,-,N/A,,Scattered Clouds,0,2013-08-15 18:55:00
2:15 PM,89.2,70.9,54,30.00,10.0,North,4.6,-,N/A,,Mostly Cloudy,350,2013-08-15 19:15:00
2:35 PM,91.6,70.9,51,29.99,10.0,North,3.5,-,N/A,,Scattered Clouds,10,2013-08-15 19:35:00
2:55 PM,91.8,70.5,50,29.98,10.0,NE,5.8,-,N/A,,Scattered Clouds,40,2013-08-15 19:55:00
3:15 PM,91.6,69.8,49,29.97,10.0,WSW,3.5,-,N/A,,Scattered Clouds,250,2013-08-15 20:15:00
3:35 PM,93.0,70.2,47,29.97,10.0,North,4.6,-,N/A,,Scattered Clouds,360,2013-08-15 20:35:00
3:55 PM,91.8,68.4,46,29.95,10.0,NE,6.9,-,N/A,,Scattered Clouds,50,2013-08-15 20:55:00
4:15 PM,92.5,67.8,44,29.95,10.0,NNE,3.5,-,N/A,,Clear,30,2013-08-15 21:15:00
4:35 PM,92.8,66.9,42,29.94,10.0,NW,3.5,-,N/A,,Clear,320,2013-08-15 21:35:00
4:55 PM,95.0,68.0,41,29.93,10.0,NE,6.9,-,N/A,,Clear,40,2013-08-15 21:55:00
5:15 PM,94.3,67.5,41,29.92,10.0,East,3.5,-,N/A,,Clear,80,2013-08-15 22:15:00
5:35 PM,93.9,66.9,41,29.92,10.0,Calm,Calm,-,N/A,,Clear,0,2013-08-15 22:35:00
5:55 PM,94.6,68.4,42,29.92,10.0,ENE,8.1,-,N/A,,Clear,60,2013-08-15 22:55:00
6:15 PM,93.2,68.9,45,29.92,10.0,ESE,9.2,-,N/A,,Clear,110,2013-08-15 23:15:00
6:35 PM,92.5,68.5,45,29.93,10.0,East,4.6,-,N/A,,Scattered Clouds,80,2013-08-15 23:35:00
6:55 PM,91.8,69.3,48,29.93,10.0,ENE,5.8,-,N/A,,Scattered Clouds,70,2013-08-15 23:55:00
7:15 PM,91.4,69.4,48,29.94,10.0,East,8.1,-,N/A,,Clear,90,2013-08-16 00:15:00
7:35 PM,90.0,69.4,51,29.94,10.0,ENE,4.6,-,N/A,,Clear,70,2013-08-16 00:35:00
7:55 PM,89.1,70.0,53,29.95,10.0,Calm,Calm,-,N/A,,Clear,0,2013-08-16 00:55:00
8:15 PM,88.2,70.7,56,29.97,10.0,East,4.6,-,N/A,,Clear,90,2013-08-16 01:15:00
8:35 PM,87.8,70.7,57,29.97,10.0,East,4.6,-,N/A,,Clear,90,2013-08-16 01:35:00
8:55 PM,87.3,70.9,58,29.97,10.0,East,5.8,-,N/A,,Clear,90,2013-08-16 01:55:00
9:15 PM,86.9,71.1,59,29.95,10.0,East,5.8,-,N/A,,Clear,100,2013-08-16 02:15:00
9:35 PM,86.4,71.6,61,29.97,10.0,East,6.9,-,N/A,,Clear,100,2013-08-16 02:35:00
9:55 PM,86.0,71.6,62,29.99,10.0,East,3.5,-,N/A,,Clear,100,2013-08-16 02:55:00
10:15 PM,85.5,71.8,63,30.00,10.0,ESE,3.5,-,N/A,,Clear,120,2013-08-16 03:15:00
10:35 PM,85.1,72.0,65,30.00,10.0,Calm,Calm,-,N/A,,Clear,0,2013-08-16 03:35:00
10:55 PM,85.1,72.5,66,30.01,10.0,South,4.6,-,N/A,,Scattered Clouds,190,2013-08-16 03:55:00
11:15 PM,84.7,72.5,67,30.01,10.0,South,3.5,-,N/A,Rain,Light Rain,190,2013-08-16 04:15:00
11:35 PM,84.7,72.5,67,30.01,10.0,SSE,3.5,-,N/A,,Overcast,150,2013-08-16 04:35:00
11:55 PM,84.2,72.7,68,30.00,10.0,Calm,Calm,-,N/A,,Mostly Cloudy,0,2013-08-16 04:55:00